User: anonymous   Login
Location: Earls Croome
(52.0667°N, 2.2000°W)
Time: 14:10:12
(UTC+00:00)
Language:

Helios 1A Rocket - Orbit

View from above orbital plane
View from above orbital plane
View from above satellite
View from above satellite

Ground track
Ground track

The orbit data is extracted from the following two-line orbital elements,

1 23608U 95033D   20022.16768076  .00000034  00000-0  87110-5 0  9995
2 23608  98.3231  23.9781 0016993   9.4611 350.6926 14.97190564329715
Epoch (UTC): 22 January 2020 04:01:27
Eccentricity: 0.0016993
inclination: 98.3231°
perigee height: 564 km
apogee height: 587 km
right ascension of ascending node: 23.9781°
argument of perigee: 9.4611°
revolutions per day: 14.97190564
mean anomaly at epoch: 350.6926°
orbit number at epoch: 32971

The dashed part of the orbit path shows where the satellite is in the earth's shadow,  

DLR